Home > Weather > Valdivia > Past weeks

Flag for Chile Past Weather in Valdivia, Chile — Yesterday and Last 2 Weeks

Now
52 °F

Rain. Passing clouds.


Feels Like: 49 °F
Forecast: 52 / 56 °F
Wind: 8 mph from Northwest

Location: Puerto Montt Airport

Current Time: May 28, 2016 at 8:19:56 PM

Latest Report: May 28, 2016 at 8:00 PM


Visibility: 5 mi

Pressure: 30.07 "Hg

Humidity: 82%

Dew Point: 46 °F

Location of ValdiviaLocation

Past Weather in Valdivia — Graph

°F

Valdivia Temperature Yesterday

Maximum temperature yesterday: 61 °F (at 2:00 PM)
Minimum temperature yesterday: 36 °F (at 6:00 AM)
Average temperature yesterday: 47 °F

High & Low Weather Summary for the Past Weeks

 TemperatureHumidityPressure
High66 °F (May 26, 2:00 PM)100% (May 14, 5:00 AM)30.24 "Hg (May 14, 5:00 AM)
Low30 °F (May 21, 4:00 AM)39% (May 21, 3:00 PM)29.89 "Hg (May 13, 8:00 PM)
Average48 °F85%30.08 "Hg
* Reported May 13 8:00 PM — May 28 7:00 PM, Valdivia, Weather by CustomWeather, © 2016

Note: Actual official high and low records may vary slightly from our data, if they occured in-between our weather recording intervals... More about our weather records

Advertising

Valdivia Weather History for the Previous 24 Hours

Scroll right to see more
 ConditionsComfort  
Time TempWeatherWind HumidityBarometerVisibility
7:00 PM
Sat, May 28
54 °FPartly cloudy.10 mph77%30.04 "HgN/A
6:00 PM54 °FOvercast.5 mph77%30.04 "HgN/A
5:00 PM55 °FSprinkles. Mostly cloudy.7 mph67%30.04 "HgN/A
4:00 PM57 °FSunny.7 mph63%30.04 "Hg10 mi
3:00 PM59 °FSunny.10 mph55%30.04 "Hg10 mi
2:00 PM57 °FSunny.9 mph59%30.04 "Hg10 mi
1:00 PM57 °FSunny.8 mph59%30.07 "Hg10 mi
12:00 PM54 °FSunny.7 mph67%30.07 "Hg10 mi
11:00 AM52 °FPassing clouds.6 mph72%30.09 "HgN/A
10:00 AM46 °FSunny.1 mph82%30.07 "Hg10 mi
9:00 AM39 °FSunny.1 mph87%30.07 "Hg10 mi
8:00 AM39 °FSunny.No wind93%30.07 "Hg10 mi
7:00 AM39 °FClear.3 mph93%30.07 "Hg10 mi
6:00 AM37 °FClear.2 mph93%30.07 "Hg10 mi
4:00 AM39 °FClear.No wind93%30.07 "Hg10 mi
3:00 AM37 °FClear.No wind93%30.07 "Hg10 mi
2:00 AM36 °FClear.No wind93%30.09 "Hg10 mi
1:00 AM37 °FClear.No wind93%30.09 "Hg10 mi
12:00 AM41 °FClear.No wind87%30.09 "Hg10 mi
11:00 PM
Fri, May 27
41 °FClear.No wind87%30.09 "Hg10 mi
10:00 PM41 °FClear.3 mph87%30.09 "Hg10 mi
9:00 PM39 °FClear.2 mph93%30.09 "Hg10 mi
8:00 PM43 °FClear.No wind87%30.09 "Hg4 mi
Weather by CustomWeather, © 2016

See weather overviewHow to use our weather pages